GW1821 Weather Reports


Display with metric or nautical units.
time (UTC)temp
F
wind
direction
speed
MPH
gust
MPH
rain 1hr
in
rain 24hr
in
rain mn
in
humidity
%
barometer
mb
20260906234933 77 183 0.0 1.0 0.00 0.00 0.00 82 1014.6
20260906234436 77 183 0.0 1.0 0.00 0.00 0.00 82 1014.7
20260906233936 77 183 0.0 1.0 0.00 0.00 0.00 81 1014.8
20260906233925 77 183 0.0 1.0 0.00 0.00 0.00 81 1014.9
20260906232920 78 183 0.0 1.0 0.00 0.00 0.00 81 1014.9
20260906232418 78 183 0.0 1.0 0.00 0.00 0.00 81 1015.0
20260906231911 78 187 0.0 1.0 0.00 0.00 0.00 80 1015.0
20260906231411 78 175 0.0 1.0 0.00 0.00 0.00 81 1014.9
20260906230913 78 174 0.0 1.0 0.00 0.00 0.00 81 1014.8
20260906230631 78 174 0.0 1.0 0.00 0.00 0.00 80 1014.7
20260906225900 78 174 0.0 2.0 0.00 0.00 0.00 81 1014.7
20260906225343 78 174 0.0 2.0 0.00 0.00 0.00 80 1014.7
20260906224843 78 174 0.0 1.0 0.00 0.00 0.00 81 1014.7
20260906224345 78 174 0.0 1.0 0.00 0.00 0.00 81 1014.8
20260906223840 79 174 0.0 1.0 0.00 0.00 0.00 81 1014.9
20260906223601 79 174 0.0 2.0 0.00 0.00 0.00 80 1015.1
20260906222832 79 174 0.0 2.0 0.00 0.00 0.00 79 1015.1
20260906222315 79 174 0.0 2.0 0.00 0.00 0.00 78 1015.1
20260906221811 79 174 0.0 3.0 0.00 0.00 0.00 78 1015.3
20260906221525 79 174 1.0 3.0 0.00 0.00 0.00 79 1015.5
20260906220803 79 196 1.0 4.0 0.00 0.00 0.00 78 1015.5
20260906220302 80 182 1.0 4.0 0.00 0.00 0.00 78 1015.6
20260906215803 80 160 2.0 5.0 0.00 0.00 0.00 77 1015.5
20260906215256 80 161 2.0 5.0 0.00 0.00 0.00 76 1015.4
20260906214755 80 175 3.0 9.0 0.00 0.00 0.00 75 1015.4
20260906214251 80 138 4.0 10.0 0.00 0.00 0.00 75 1015.4
20260906213755 80 175 4.0 10.0 0.00 0.00 0.00 75 1015.4
20260906213237 81 181 3.0 9.0 0.00 0.00 0.00 74 1015.4
20260906212950 81 175 2.0 7.0 0.00 0.00 0.00 75 1015.4
20260906212229 81 200 2.0 6.0 0.00 0.00 0.00 75 1015.3
20260906211725 81 137 2.0 6.0 0.00 0.00 0.00 74 1015.4
20260906211226 81 144 2.0 6.0 0.00 0.00 0.00 75 1015.5
20260906210726 81 139 2.0 7.0 0.00 0.00 0.00 75 1015.6
20260906210214 81 155 3.0 9.0 0.00 0.00 0.00 74 1015.7
20260906205712 81 177 4.0 9.0 0.00 0.00 0.00 74 1015.8
20260906205209 81 182 4.0 11.0 0.00 0.00 0.00 74 1016.0
20260906204712 81 171 5.0 12.0 0.00 0.00 0.00 72 1016.0
20260906204149 81 161 5.0 12.0 0.00 0.00 0.00 72 1016.2
20260906203642 81 130 3.0 10.0 0.00 0.00 0.00 73 1016.3
20260906203140 82 147 3.0 9.0 0.00 0.00 0.00 74 1016.4
20260906202639 82 128 4.0 9.0 0.00 0.00 0.00 72 1016.4
20260906202136 82 169 4.0 9.0 0.00 0.00 0.00 72 1016.2
20260906201629 82 175 4.0 9.0 0.00 0.00 0.00 73 1016.1
20260906201111 82 150 4.0 10.0 0.00 0.00 0.00 71 1016.0
20260906200609 82 184 2.0 10.0 0.00 0.00 0.00 72 1016.0
20260906200559 82 157 2.0 6.0 0.00 0.00 0.00 74 1015.9
20260906195606 81 136 2.0 10.0 0.00 0.00 0.00 75 1015.9
20260906195107 81 156 2.0 10.0 0.00 0.00 0.00 74 1015.8
20260906194609 81 165 2.0 8.0 0.00 0.00 0.00 74 1015.6
20260906194330 81 163 3.0 10.0 0.00 0.00 0.00 74 1015.6
20260906193554 81 147 3.0 11.0 0.00 0.00 0.00 74 1015.8
20260906193051 81 151 2.0 11.0 0.00 0.00 0.00 75 1015.8
20260906192552 81 157 2.0 7.0 0.00 0.00 0.00 74 1015.8
20260906192046 81 112 2.0 8.0 0.00 0.00 0.00 74 1015.8
20260906191544 81 146 4.0 9.0 0.00 0.00 0.00 76 1015.8
20260906191040 80 165 3.0 9.0 0.00 0.00 0.00 76 1015.9
20260906190812 80 181 2.0 9.0 0.00 0.00 0.00 75 1015.9
20260906190037 80 148 2.0 9.0 0.00 0.00 0.00 75 1015.9
20260906185538 80 162 2.0 6.0 0.00 0.00 0.00 75 1015.9
20260906185035 80 39 3.0 9.0 0.00 0.00 0.00 75 1015.8
20260906184531 81 136 4.0 9.0 0.00 0.00 0.00 77 1015.8
20260906184024 80 120 3.0 10.0 0.00 0.00 0.00 76 1015.8
20260906183524 81 169 3.0 10.0 0.00 0.00 0.00 75 1015.8
20260906183023 81 171 4.0 8.0 0.00 0.00 0.00 76 1016.0
20260906182512 80 150 3.0 12.0 0.00 0.00 0.00 77 1016.1
20260906182011 80 186 4.0 13.0 0.00 0.00 0.00 76 1016.1
20260906181727 80 150 4.0 13.0 0.00 0.00 0.00 76 1016.1
20260906181008 80 101 3.0 11.0 0.00 0.00 0.00 76 1016.1
20260906180506 80 153 2.0 9.0 0.00 0.00 0.00 75 1016.0
20260906180003 81 160 2.0 9.0 0.00 0.00 0.00 75 1016.0
20260906175505 81 132 2.0 9.0 0.00 0.00 0.00 75 1016.0
20260906175000 81 180 2.0 9.0 0.00 0.00 0.00 74 1016.0
20260906174500 81 155 2.0 10.0 0.00 0.00 0.00 76 1015.9
20260906173953 81 182 3.0 10.0 0.00 0.00 0.00 74 1016.0
20260906173453 81 184 4.0 8.0 0.00 0.00 0.00 77 1016.1
20260906172951 80 149 4.0 13.0 0.00 0.00 0.00 79 1016.1
20260906172437 80 96 4.0 13.0 0.00 0.00 0.00 77 1016.2
20260906171928 80 152 4.0 16.0 0.00 0.00 0.00 78 1016.2
20260906171430 80 173 4.0 16.0 0.00 0.00 0.00 79 1016.3
20260906170933 79 156 3.0 8.0 0.00 0.00 0.00 79 1016.3
20260906170414 79 172 3.0 10.0 0.00 0.00 0.00 80 1016.5
20260906165911 78 177 3.0 15.0 0.00 0.00 0.00 81 1016.5
20260906165631 78 182 2.0 15.0 0.00 0.00 0.00 80 1016.5
20260906164913 78 124 1.0 15.0 0.00 0.00 0.00 80 1016.6
20260906164412 77 146 3.0 15.0 0.00 0.00 0.00 82 1016.5
20260906164131 77 155 4.0 15.0 0.00 0.00 0.00 82 1016.6
20260906163411 77 153 2.0 9.0 0.00 0.00 0.00 83 1016.7
20260906162908 76 159 2.0 7.0 0.00 0.00 0.00 83 1016.6
20260906162407 76 142 2.0 7.0 0.00 0.00 0.00 84 1016.7
20260906161902 76 148 1.0 7.0 0.00 0.00 0.00 84 1016.7
20260906161400 76 157 1.0 6.0 0.00 0.00 0.00 84 1016.6
20260906161121 76 147 1.0 6.0 0.00 0.00 0.00 84 1016.7
20260906160347 76 148 1.0 5.0 0.00 0.00 0.00 84 1017.0
20260906155843 76 136 1.0 5.0 0.00 0.00 0.00 85 1017.0
20260906155326 75 150 2.0 12.0 0.00 0.00 0.00 84 1017.0
20260906154823 75 148 3.0 12.0 0.00 0.00 0.00 85 1017.0
20260906154321 75 157 2.0 11.0 0.00 0.00 0.00 85 1016.8
20260906153821 75 174 2.0 6.0 0.00 0.00 0.00 85 1016.8
20260906153319 75 144 1.0 6.0 0.00 0.00 0.00 86 1016.9
20260906152811 75 148 1.0 6.0 0.00 0.00 0.00 86 1017.0
20260906152300 75 157 1.0 2.0 0.00 0.00 0.00 86 1017.0
20260906152241 74 156 1.0 6.0 0.00 0.00 0.00 86 1017.1
20260906151256 75 156 2.0 6.0 0.00 0.00 0.00 86 1017.0
20260906150753 75 157 1.0 5.0 0.00 0.00 0.00 86 1017.0
20260906150245 74 119 1.0 4.0 0.00 0.00 0.00 86 1016.9
20260906145742 74 177 1.0 7.0 0.00 0.00 0.00 86 1016.8
20260906145243 74 152 2.0 9.0 0.00 0.00 0.00 87 1016.7
20260906144738 74 171 2.0 9.0 0.00 0.00 0.00 88 1016.7
20260906144238 74 142 1.0 7.0 0.00 0.00 0.00 89 1016.7
20260906143728 73 154 1.0 6.0 0.00 0.00 0.00 90 1016.7
20260906143230 73 166 1.0 6.0 0.00 0.00 0.00 91 1016.7
20260906142726 72 171 1.0 6.0 0.00 0.00 0.00 92 1016.8
20260906142228 72 157 2.0 7.0 0.00 0.00 0.00 93 1016.9
20260906141727 72 163 2.0 7.0 0.00 0.00 0.00 94 1016.8
20260906141222 71 159 2.0 6.0 0.00 0.00 0.00 95 1016.8
20260906140722 71 146 1.0 4.0 0.00 0.00 0.00 95 1016.8
20260906140222 71 184 1.0 4.0 0.00 0.00 0.00 95 1016.8
20260906135933 70 147 1.0 6.0 0.00 0.00 0.00 96 1016.9
20260906135213 70 140 1.0 6.0 0.00 0.00 0.00 96 1016.8
20260906134708 70 92 0.0 2.0 0.00 0.00 0.00 96 1016.8
20260906134150 69 92 0.0 2.0 0.00 0.00 0.00 96 1016.8
20260906133646 69 42 0.0 2.0 0.00 0.00 0.00 96 1016.6
20260906133147 69 5 0.0 2.0 0.00 0.00 0.00 96 1016.6
20260906132636 69 5 0.0 2.0 0.00 0.00 0.00 96 1016.6
20260906132356 68 5 0.0 1.0 0.00 0.00 0.00 96 1016.6
20260906131631 68 5 0.0 1.0 0.00 0.00 0.00 96 1016.6
20260906131345 68 5 0.0 1.0 0.00 0.00 0.00 96 1016.5
20260906130814 68 5 0.0 1.0 0.00 0.00 0.00 96 1016.5
20260906130049 67 5 0.0 1.0 0.00 0.00 0.00 96 1016.6
20260906125543 67 5 0.0 1.0 0.00 0.00 0.00 96 1016.6
20260906125026 67 5 0.0 1.0 0.00 0.00 0.00 96 1016.6
20260906124525 66 5 0.0 1.0 0.00 0.00 0.00 95 1016.5
20260906124009 66 5 0.0 0.0 0.00 0.00 0.00 95 1016.5
20260906123719 66 5 0.0 0.0 0.00 0.00 0.00 95 1016.6
20260906122951 66 5 0.0 0.0 0.00 0.00 0.00 95 1016.6
20260906122448 66 5 0.0 0.0 0.00 0.00 0.00 95 1016.6
20260906121943 66 5 0.0 0.0 0.00 0.00 0.00 95 1016.5
20260906121659 66 5 0.0 0.0 0.00 0.00 0.00 95 1016.4
20260906120912 66 5 0.0 0.0 0.00 0.00 0.00 95 1016.4
20260906120358 66 5 0.0 0.0 0.00 0.00 0.00 95 1016.3
20260906120116 66 5 0.0 0.0 0.00 0.00 0.00 95 1016.2
20260906115354 66 5 0.0 0.0 0.00 0.00 0.00 94 1016.2
20260906114836 66 5 0.0 0.0 0.00 0.00 0.00 94 1016.2
20260906114330 66 5 0.0 0.0 0.00 0.00 0.00 95 1016.2
20260906113821 66 5 0.0 0.0 0.00 0.00 0.00 95 1016.2
20260906113310 66 5 0.0 0.0 0.00 0.00 0.00 94 1016.1
20260906113037 66 5 0.0 0.0 0.00 0.00 0.00 94 1016.1
20260906112526 66 5 0.0 0.0 0.00 0.00 0.00 94 1016.1
20260906112019 66 5 0.0 0.0 0.00 0.00 0.00 94 1016.0
20260906111257 66 5 0.0 0.0 0.00 0.00 0.00 94 1016.0
20260906110732 66 5 0.0 0.0 0.00 0.00 0.00 94 1015.9
20260906110224 67 5 0.0 0.0 0.00 0.00 0.00 94 1015.8
20260906105710 67 5 0.0 0.0 0.00 0.00 0.00 94 1015.8
20260906105208 67 5 0.0 0.0 0.00 0.00 0.00 94 1015.8
20260906104935 67 5 0.0 0.0 0.00 0.00 0.00 94 1015.8
20260906104157 67 5 0.0 0.0 0.00 0.00 0.00 94 1015.8
20260906103634 67 5 0.0 0.0 0.00 0.00 0.00 94 1015.8
20260906103130 67 5 0.0 0.0 0.00 0.00 0.00 94 1015.8
20260906102558 67 5 0.0 0.0 0.00 0.00 0.00 94 1015.8
20260906102043 67 5 0.0 0.0 0.00 0.00 0.00 94 1015.8
20260906101545 67 5 0.0 0.0 0.00 0.00 0.00 94 1015.7
20260906101043 67 5 0.0 0.0 0.00 0.00 0.00 94 1015.6
20260906100531 67 5 0.0 0.0 0.00 0.00 0.00 94 1015.7
20260906100252 67 5 0.0 0.0 0.00 0.00 0.00 94 1015.7
20260906095523 67 5 0.0 0.0 0.00 0.00 0.00 94 1015.6
20260906095230 67 5 0.0 0.0 0.00 0.00 0.00 94 1015.4
20260906094502 67 5 0.0 0.0 0.00 0.00 0.00 94 1015.3
20260906093957 67 5 0.0 0.0 0.00 0.00 0.00 94 1015.1
20260906093440 67 5 0.0 0.0 0.00 0.00 0.00 94 1015.0
20260906092938 67 5 0.0 0.0 0.00 0.00 0.00 94 1015.0
20260906092431 67 5 0.0 0.0 0.00 0.00 0.00 94 1015.0
20260906091915 68 5 0.0 0.0 0.00 0.00 0.00 94 1015.0
20260906091412 68 5 0.0 0.0 0.00 0.00 0.00 93 1014.9
20260906090858 68 5 0.0 0.0 0.00 0.00 0.00 93 1014.9
20260906090353 68 5 0.0 0.0 0.00 0.00 0.00 93 1014.9
20260906085813 68 5 0.0 0.0 0.00 0.00 0.00 93 1014.9
20260906085314 68 5 0.0 0.0 0.00 0.00 0.00 93 1015.0
20260906084812 68 5 0.0 0.0 0.00 0.00 0.00 93 1015.0
20260906084305 68 5 0.0 0.0 0.00 0.00 0.00 93 1014.8
20260906083804 68 5 0.0 1.0 0.00 0.00 0.00 93 1014.8
20260906083507 68 5 0.0 1.0 0.00 0.00 0.00 93 1014.8
20260906082734 68 5 0.0 0.0 0.00 0.00 0.00 93 1014.9
20260906082227 68 5 0.0 0.0 0.00 0.00 0.00 93 1014.9
20260906081716 68 5 0.0 1.0 0.00 0.00 0.00 92 1015.0
20260906081200 68 5 0.0 0.0 0.00 0.00 0.00 92 1015.0
20260906080644 68 5 0.0 0.0 0.00 0.00 0.00 92 1014.9
20260906080402 68 5 0.0 0.0 0.00 0.00 0.00 92 1014.9
20260906075612 68 5 0.0 0.0 0.00 0.00 0.00 92 1014.9
20260906075103 69 5 0.0 0.0 0.00 0.00 0.00 92 1014.9
20260906074604 69 5 0.0 0.0 0.00 0.00 0.00 92 1015.0
20260906074042 69 5 0.0 0.0 0.00 0.00 0.00 92 1015.0
20260906073540 69 5 0.0 0.0 0.00 0.00 0.00 92 1014.9
20260906073032 69 5 0.0 1.0 0.00 0.00 0.00 91 1015.0
20260906072520 69 5 0.0 1.0 0.00 0.00 0.00 91 1015.0
20260906072234 69 5 0.0 0.0 0.00 0.00 0.00 91 1015.0
20260906071956 69 5 0.0 0.0 0.00 0.00 0.00 91 1015.3
20260906071010 69 5 0.0 0.0 0.00 0.00 0.00 91 1015.3
20260906070434 69 5 0.0 0.0 0.00 0.00 0.00 91 1015.3
20260906065912 69 5 0.0 0.0 0.00 0.00 0.00 91 1015.3
20260906065410 69 5 0.0 0.0 0.00 0.00 0.00 91 1015.4
20260906064854 69 5 0.0 0.0 0.00 0.00 0.00 91 1015.4
20260906064334 69 5 0.0 0.0 0.00 0.00 0.00 91 1015.6
20260906063824 69 5 0.0 1.0 0.00 0.00 0.00 91 1015.4
20260906063315 69 5 0.0 1.0 0.00 0.00 0.00 91 1015.5
20260906062754 69 5 0.0 0.0 0.00 0.00 0.00 90 1015.4
20260906062506 69 5 0.0 0.0 0.00 0.00 0.00 90 1015.4
20260906061738 70 5 0.0 0.0 0.00 0.00 0.00 90 1015.4
20260906061220 70 5 0.0 0.0 0.00 0.00 0.00 90 1015.3
20260906060716 70 5 0.0 0.0 0.00 0.00 0.00 90 1015.3
20260906060214 70 5 0.0 0.0 0.00 0.00 0.00 90 1015.4
20260906055655 70 5 0.0 0.0 0.00 0.00 0.00 89 1015.4
20260906055135 70 5 0.0 0.0 0.00 0.00 0.00 89 1015.3
20260906054631 70 5 0.0 0.0 0.00 0.00 0.00 89 1015.4
20260906054335 70 5 0.0 0.0 0.00 0.00 0.00 89 1015.4
20260906053604 70 5 0.0 1.0 0.00 0.00 0.00 89 1015.4
20260906053322 71 5 0.0 1.0 0.00 0.00 0.00 89 1015.4
20260906052811 71 5 0.0 1.0 0.00 0.00 0.00 89 1015.5
20260906052037 71 5 0.0 1.0 0.00 0.00 0.00 88 1015.4
20260906051534 71 5 0.0 1.0 0.00 0.00 0.00 88 1015.4
20260906051020 71 5 0.0 1.0 0.00 0.00 0.00 88 1015.4
20260906050735 71 5 0.0 0.0 0.00 0.00 0.00 88 1015.4
20260906050006 71 5 0.0 0.0 0.00 0.00 0.00 88 1015.3
20260906045505 71 5 0.0 0.0 0.00 0.00 0.00 88 1015.3
20260906045002 72 5 0.0 0.0 0.00 0.00 0.00 87 1015.4
20260906044711 72 5 0.0 0.0 0.00 0.00 0.00 87 1015.4
20260906043945 72 5 0.0 0.0 0.00 0.00 0.00 87 1015.4
20260906043652 72 5 0.0 1.0 0.00 0.00 0.00 87 1015.4
20260906042913 72 5 0.0 1.0 0.00 0.00 0.00 86 1015.5
20260906042413 72 5 0.0 0.0 0.00 0.00 0.00 86 1015.5
20260906041913 72 5 0.0 0.0 0.00 0.00 0.00 86 1015.6
20260906041631 72 5 0.0 1.0 0.00 0.00 0.00 86 1015.5
20260906040912 72 5 0.0 1.0 0.00 0.00 0.00 86 1015.6
20260906040404 72 5 0.0 1.0 0.00 0.00 0.00 86 1015.5
20260906035905 72 5 0.0 1.0 0.00 0.00 0.00 86 1015.4
20260906035353 72 5 0.0 1.0 0.00 0.00 0.00 86 1015.5
20260906034848 73 5 0.0 1.0 0.00 0.00 0.00 86 1015.5
20260906034338 73 5 0.0 1.0 0.00 0.00 0.00 86 1015.5
20260906033834 73 5 0.0 1.0 0.00 0.00 0.00 86 1015.5
20260906033312 73 5 0.0 1.0 0.00 0.00 0.00 85 1015.6
20260906032752 73 5 0.0 1.0 0.00 0.00 0.00 85 1015.7
20260906032249 73 342 0.0 0.0 0.00 0.00 0.00 85 1015.7
20260906031736 73 342 0.0 1.0 0.00 0.00 0.00 85 1015.6
20260906031212 74 342 0.0 1.0 0.00 0.00 0.00 84 1015.7
20260906030712 74 342 0.0 1.0 0.00 0.00 0.00 84 1015.8
20260906030150 74 342 0.0 1.0 0.00 0.00 0.00 84 1015.8
20260906025646 74 342 0.0 0.0 0.00 0.00 0.00 85 1015.6
20260906025414 74 342 0.0 0.0 0.00 0.00 0.00 85 1015.6
20260906024637 74 342 0.0 1.0 0.00 0.00 0.00 84 1015.7
20260906024118 74 342 0.0 1.0 0.00 0.00 0.00 85 1015.8
20260906023554 74 342 0.0 0.0 0.00 0.00 0.00 84 1015.7
20260906023318 74 342 0.0 0.0 0.00 0.00 0.00 84 1015.5
20260906022741 74 342 0.0 0.0 0.00 0.00 0.00 84 1015.4
20260906022015 74 342 0.0 0.0 0.00 0.00 0.00 84 1015.4
20260906021515 74 342 0.0 0.0 0.00 0.00 0.00 83 1015.3
20260906021016 74 342 0.0 0.0 0.00 0.00 0.00 83 1015.1
20260906020515 75 342 0.0 0.0 0.00 0.00 0.00 83 1014.9
20260906020014 75 342 0.0 0.0 0.00 0.00 0.00 83 1014.5
20260906015508 75 342 0.0 1.0 0.00 0.00 0.00 82 1014.5
20260906015002 75 342 0.0 1.0 0.00 0.00 0.00 82 1014.5
20260906014458 75 342 0.0 1.0 0.00 0.00 0.00 82 1014.2
20260906014200 76 342 0.0 1.0 0.00 0.00 0.00 82 1014.0
20260906013439 76 355 0.0 1.0 0.00 0.00 0.00 81 1013.9
20260906012937 76 355 0.0 1.0 0.00 0.00 0.00 81 1013.9
20260906012650 76 142 0.0 1.0 0.00 0.00 0.00 81 1013.9
20260906011927 77 146 0.0 1.0 0.00 0.00 0.00 81 1013.7
20260906011425 77 151 0.0 1.0 0.00 0.00 0.00 80 1013.6
20260906010927 77 168 0.0 0.0 0.00 0.00 0.00 80 1013.6
20260906010420 78 168 0.0 3.0 0.00 0.00 0.00 80 1013.5
20260906005914 78 168 0.0 3.0 0.00 0.00 0.00 79 1013.3
20260906005416 78 168 0.0 4.0 0.00 0.00 0.00 79 1013.2
20260906004908 79 168 0.0 4.0 0.00 0.00 0.00 78 1013.2
20260906004406 79 202 0.0 1.0 0.00 0.00 0.00 76 1013.1
20260906003902 79 202 0.0 2.0 0.00 0.00 0.00 76 1013.0
20260906003357 80 202 0.0 2.0 0.00 0.00 0.00 76 1013.0
20260906002827 80 202 0.0 3.0 0.00 0.00 0.00 75 1012.9
20260906002323 80 202 1.0 3.0 0.00 0.00 0.00 74 1012.8
20260906001814 80 212 0.0 3.0 0.00 0.00 0.00 74 1012.7
20260906001306 81 319 0.0 2.0 0.00 0.00 0.00 73 1012.5
20260906000803 81 340 1.0 1.0 0.00 0.00 0.00 72 1012.5
20260906000304 81 340 1.0 2.0 0.00 0.00 0.00 72 1012.7
20260905235801 81 340 1.0 2.0 0.00 0.00 0.00 71 1012.7
20260905235300 82 340 1.0 2.0 0.00 0.00 0.00 71 1012.9